Location: Baia Mare
(47.6567°N, 23.5850°E)
Time: 19:01:46
(UTC+03:00)

ISS - Pass Details

Date: 25 September 2018
Orbit: 403 x 408 km, 51.6° (Epoch: 23 September)

Event Time Altitude Azimuth Distance (km) Brightness Sun altitude
Rises 18:51:10 0° 189° (S) 2,319 0.2 3.6°
Reaches altitude 10° 18:54:28 10° 152° (SSE) 1,464 -1.2 3.1°
Drops below altitude 10° 18:56:35 10° 115° (ESE) 1,467 -1.5 2.7°
Enters shadow 19:00:37 -2° 75° (ENE) 2,582 -0.4 2.1°
Exits shadow 19:33:30 -71° 42° (NE) 12,457 3.6 -3.5°
Maximum altitude 20:31:28 61° 151° (SSE) 466 -3.8 -13.2°
